Estherville, IA

7:47 AM CDT on May 25, 2017 (GMT -0500)
Estherville Municipal

Weather History for KEST - March, 2014

Change the Weather History Date:

Wednesday, March 26, 2014

  Actual Average Record
Temperature  
Mean Temperature 36 °F 38 °F  
Max Temperature 56 °F 47 °F 80 °F (2007)
Min Temperature 15 °F 28 °F -3 °F (1965)
Degree Days  
Heating Degree Days 29 27  
Month to date heating degree days 1038 868  
Since 1 July heating degree days 7529 6783  
Cooling Degree Days 0 0  
Month to date cooling degree days 0 0  
Year to date cooling degree days 0 0  
Moisture  
Dew Point 24 °F    
Average Humidity 62    
Maximum Humidity 88    
Minimum Humidity 36    
Precipitation  
Precipitation 0.00 in 0.06 in 0.60 in (1959)
Month to date precipitation 0.10 1.19  
Sea Level Pressure  
Sea Level Pressure 29.82 in    
Wind  
Wind Speed 24 mph (South)    
Max Wind Speed 40 mph    
Max Gust Speed 49 mph    
Visibility 10 miles    
Events      
T = Trace of Precipitation, MM = Missing Value Source: NWS Daily Summary

Daily Weather History Graph

Daily Weather History Graph

Search for Another Location

Airport or City:

Trip Planner

Search our weather history database for the weather conditions in past years. The results will help you decide how hot, cold, wet, or windy it might be!

Date:

Astronomy

Mar. 26, 2014 Rise Set
Actual Time 7:11 AM CDT 7:38 PM CDT
Civil Twilight 6:42 AM CDT 8:07 PM CDT
Nautical Twilight 6:09 AM CDT 8:41 PM CDT
Astronomical Twilight 5:34 AM CDT 9:15 PM CDT
Moon 4:28 AM CDT (3/26) 3:11 PM CDT (3/26)
Length of Visible Light 13h 24m
Length of Day
12h 27m
Waning Crescent, 21% of the Moon is Illuminated
Mar 26
Waning Crescent
Mar 30
New
Apr 7
First Quarter
Apr 15
Full
Apr 22
Last Quarter

Hourly Weather History & Observations

Time (CDT) Temp. Windchill Dew Point Humidity Pressure Visibility Wind Dir Wind Speed Gust Speed Precip Events Conditions
12:52 AM 16.0 °F 6.3 °F 12.0 °F 84% 30.17 in 10.0 mi SSE 6.9 mph - N/A   Clear
1:52 AM 16.0 °F 6.3 °F 12.9 °F 88% 30.17 in 10.0 mi South 6.9 mph - N/A   Clear
2:52 AM 19.0 °F 8.2 °F 14.0 °F 81% 30.15 in 10.0 mi SSE 9.2 mph - N/A   Clear
3:52 AM 19.0 °F 7.5 °F 14.0 °F 81% 30.12 in 10.0 mi SSE 10.4 mph - N/A   Clear
4:52 AM 19.0 °F 8.2 °F 12.9 °F 77% 30.11 in 10.0 mi SSE 9.2 mph - N/A   Partly Cloudy
5:52 AM 19.9 °F 6.2 °F 14.0 °F 78% 30.09 in 10.0 mi South 15.0 mph - N/A   Mostly Cloudy
6:52 AM 19.9 °F 6.7 °F 15.1 °F 81% 30.05 in 10.0 mi SSE 13.8 mph - N/A   Overcast
7:52 AM 21.9 °F 7.3 °F 14.0 °F 72% 30.04 in 10.0 mi SSE 18.4 mph - N/A   Partly Cloudy
8:52 AM 24.1 °F 8.7 °F 14.0 °F 65% 30.01 in 6.0 mi SSE 23.0 mph - N/A   Haze
9:52 AM 28.9 °F 15.1 °F 16.0 °F 58% 29.97 in 10.0 mi SSE 23.0 mph 31.1 mph N/A   Clear
10:52 AM 35.1 °F 22.5 °F 18.0 °F 50% 29.91 in 10.0 mi South 26.5 mph 35.7 mph N/A   Clear
11:52 AM 39.9 °F 28.8 °F 21.0 °F 47% 29.87 in 10.0 mi SSE 27.6 mph 44.9 mph N/A   Clear
12:52 PM 46.0 °F 36.5 °F 23.0 °F 40% 29.81 in 10.0 mi South 31.1 mph 40.3 mph N/A   Clear
1:52 PM 50.0 °F - 25.0 °F 38% 29.75 in 10.0 mi South 32.2 mph 41.4 mph N/A   Clear
2:52 PM 52.0 °F - 27.0 °F 38% 29.69 in 10.0 mi South 36.8 mph 44.9 mph N/A   Clear
3:52 PM 54.0 °F - 28.0 °F 37% 29.65 in 10.0 mi South 32.2 mph 49.5 mph N/A   Clear
4:52 PM 55.0 °F - 30.0 °F 38% 29.62 in 10.0 mi South 34.5 mph 44.9 mph N/A   Clear
5:52 PM 55.0 °F - 30.9 °F 40% 29.59 in 10.0 mi South 28.8 mph 40.3 mph N/A   Clear
6:52 PM 51.1 °F - 30.9 °F 46% 29.57 in 10.0 mi SSE 27.6 mph 36.8 mph N/A   Overcast
7:52 PM 48.9 °F - 32.0 °F 52% 29.55 in 10.0 mi South 24.2 mph 33.4 mph N/A   Overcast
8:52 PM 50.0 °F - 37.9 °F 63% 29.55 in 9.0 mi South 39.1 mph 48.3 mph N/A   Overcast
9:52 PM 46.9 °F - 37.9 °F 71% 29.55 in 10.0 mi South 29.9 mph 39.1 mph N/A   Overcast
10:15 PM 46.9 °F - 39.0 °F 74% 29.52 in 10.0 mi SSW 33.4 mph 48.3 mph N/A   Overcast
10:52 PM 45.0 °F 35.4 °F 37.9 °F 76% 29.55 in 10.0 mi South 28.8 mph 38.0 mph N/A   Overcast
11:52 PM 44.1 °F 33.8 °F 39.0 °F 82% 29.54 in 10.0 mi South 31.1 mph 43.7 mph N/A   Overcast